[[[{"header":{"parameterUnit":"kt","parameterCategory":2,"dx":1,"dy":1,"la1":30.253999710083008,"la2":30.299108505249023,"lo1":-89.0895004272461,"lo2":-89.04439544677734,"nx":28,"ny":28,"refTime":"2022-10-19T21:00:00:Z","depth":"0","parameterNumber":2,"parameterNumberName":"U-component_of_CURRENTS"},"data":[0.5987,0.5986,0.5998,0.5879,0.5844,0.5655,0.5576,0.5462,0.5524,0.5473,0.5525,0.5679,0.5853,0.5883,0.5657,0.5533,0.5093,0.4925,0.4954,0.5487,0.5555,0.5619,0.5368,0.4969,0.4967,0.3835,0.3826,0.3818,0.6037,0.608,0.6133,0.611,0.605,0.6083,0.6054,0.593,0.5879,0.607,0.6149,0.6271,0.6343,0.6467,0.6516,0.6341,0.6102,0.6155,0.5677,0.5591,0.648,0.6249,0.6031,0.6031,0.6032,0.6032,0.6032,0.6032,0.6143,0.6165,0.6234,0.6224,0.6249,0.6209,0.6134,0.6192,0.6211,0.6247,0.6477,0.6583,0.6795,0.7227,0.7266,0.7144,0.7208,0.6993,0.6914,0.6728,0.6359,0.7271,0.7395,0.7399,0.7402,0.7406,0.7408,0,0.6156,0.6189,0.6266,0.6292,0.6306,0.6307,0.633,0.6344,0.6427,0.651,0.6639,0.6762,0.7141,0.7254,0.7587,0.7701,0.738,0.7731,0.7506,0.6748,0.6399,0.6238,0.7215,0.7365,0.7369,0.7372,0.7374,0.7375,0.6125,0.619,0.629,0.6313,0.6354,0.6377,0.6387,0.6454,0.6486,0.6655,0.6698,0.6952,0.7085,0.7501,0.7673,0.7952,0.7662,0.7809,0.7639,0.735,0.7251,0.7004,0.6835,0.7418,0.7413,0.7408,0.7405,0,0.6078,0.6196,0.6292,0.639,0.6398,0.6415,0.645,0.6479,0.6578,0.6654,0.6701,0.69,0.714,0.7327,0.7607,0.7686,0.7661,0.7927,0.7568,0.7559,0.7371,0.725,0.7121,0.6933,0.8139,0.814,0.814,0,0.6087,0.6151,0.629,0.6345,0.6379,0.6443,0.6473,0.652,0.66,0.6647,0.6771,0.6847,0.7046,0.7221,0.7341,0.7561,0.7638,0.7622,0.7665,0.736,0.7328,0.7149,0.7016,0.7721,0.7718,0.7715,0.7713,0,0.604,0.6192,0.6298,0.6327,0.6439,0.6448,0.647,0.653,0.655,0.6667,0.6737,0.6874,0.6966,0.7127,0.7252,0.7202,0.7528,0.7494,0.7566,0.7566,0.7368,0.734,0.7242,0.7709,0.7708,0.7707,0.7706,0,0.6061,0.6187,0.6315,0.6401,0.6431,0.6445,0.6488,0.6505,0.6582,0.6619,0.6703,0.6745,0.6856,0.6814,0.7068,0.696,0.7082,0.715,0.7167,0.7123,0.7096,0.7119,0.7203,0.6942,0.7348,0.7344,0.734,0,0.5959,0.6166,0.6262,0.6336,0.6421,0.6442,0.6451,0.6486,0.6518,0.657,0.6609,0.6657,0.6631,0.6663,0.6736,0.6828,0.6944,0.6766,0.7095,0.7106,0.7048,0.7165,0.6844,0.7148,0.7288,0.7294,0.7297,0,0.5908,0.617,0.618,0.6243,0.6353,0.639,0.641,0.6463,0.6488,0.6515,0.6563,0.6574,0.6614,0.6626,0.662,0.6688,0.6864,0.67,0.6706,0.6867,0.7172,0.7103,0.7133,0.6864,0.6869,0.6872,0.7256,0,0.5896,0.6041,0.6109,0.6285,0.6324,0.6384,0.6421,0.6435,0.6441,0.6459,0.6503,0.6513,0.656,0.655,0.653,0.6621,0.6663,0.6638,0.6651,0.6695,0.6856,0.6889,0.6503,0.6503,0.6503,0.6503,0,0,0.5746,0.5984,0.6124,0.6231,0.6272,0.6325,0.6379,0.6383,0.642,0.6433,0.6427,0.6474,0.6481,0.6517,0.651,0.6509,0.6601,0.6518,0.6648,0.6663,0.6678,0.6834,0.6865,0.6503,0.6503,0.6503,0.6503,0,0.5775,0.5958,0.61,0.6158,0.6292,0.6318,0.6341,0.6403,0.64,0.6418,0.6413,0.6444,0.6459,0.6474,0.6483,0.6502,0.6586,0.6503,0.6525,0.6643,0.6658,0.6672,0.6828,0.6856,0.6503,0.6503,0.6503,0,0.5715,0.5884,0.5974,0.6187,0.6246,0.6301,0.6313,0.6383,0.6388,0.6392,0.6392,0.6409,0.6423,0.6444,0.6459,0.6457,0.6586,0.6492,0.6492,0.6512,0.6635,0.6651,0.6666,0.6486,0.6485,0.6485,0,0,0.572,0.5894,0.6042,0.6196,0.6246,0.6296,0.6331,0.6353,0.6381,0.6384,0.639,0.6401,0.6417,0.643,0.6447,0.6469,0.6549,0.649,0.6491,0.6491,0.6511,0.6632,0.6647,0.6485,0.6485,0.6485,0,0,0.5681,0.5925,0.5989,0.6194,0.6258,0.6319,0.6361,0.6364,0.6369,0.6373,0.6377,0.6383,0.6411,0.642,0.6413,0.6458,0.6454,0.6456,0.6454,0.6455,0.6456,0.6475,0.6429,0,0,0,0,0,0.5773,0.5907,0.5965,0.6018,0.6237,0.6311,0.632,0.6359,0.6351,0.6363,0.6361,0.6379,0.6416,0.6409,0.6416,0.644,0.6482,0.6482,0.6483,0.6485,0.6486,0.6487,0,0,0,0,0,0,0.5794,0.5862,0.5959,0.605,0.6099,0.6308,0.6302,0.6309,0.6351,0.6351,0.6374,0.6379,0.6387,0.6408,0.6413,0.6436,0.6427,0.6482,0.6482,0.6483,0.6485,0.6486,0.6487,0,0,0,0,0,0.5811,0.5866,0.6247,0.6041,0.6084,0.6164,0.63,0.6307,0.6317,0.6366,0.637,0.6353,0.6386,0.6393,0.6411,0.6433,0.6424,0.6426,0.6482,0.6483,0.6483,0.6486,0,0,0,0,0,0,0.5824,0.5805,0.6252,0.626,0.6045,0.6148,0.6179,0.6304,0.6327,0.6336,0.6345,0.6346,0.6386,0.6391,0.6396,0.6432,0.642,0.6423,0.6424,0.6482,0.6483,0.6483,0,0,0,0,0,0,0.5777,0.5813,0.6255,0.6258,0.6266,0.6134,0.6163,0.6187,0.6326,0.6299,0.6304,0.6345,0.6394,0.639,0.6394,0.6424,0.6418,0.642,0.6421,0.6422,0.6483,0.6483,0,0,0,0,0,0,0.5789,0.582,0.6254,0.626,0.6267,0.6345,0.6148,0.6371,0.6342,0.6295,0.6343,0.6344,0.6394,0.6397,0.6392,0.642,0.6423,0.6418,0.6419,0.642,0.6421,0,0,0,0,0,0,0,0.58,0.5626,0.6228,0.6262,0.6268,0.6342,0.6342,0.6341,0.6342,0.6343,0.6343,0.6344,0.6407,0.6409,0.6411,0.6417,0,0,0.6418,0.6419,0,0,0,0,0,0,0,0,0.561,0.5622,0.6229,0.6232,0.6235,0.6342,0.6342,0.6342,0.6343,0.6343,0.6343,0.6343,0.6407,0.6409,0.6411,0,0,0,0,0,0,0,0,0,0,0,0,0,0,0,0.6229,0.6232,0,0.6342,0.6342,0.6342,0.6343,0.6343,0.6343,0.6343,0.6408,0.6409,0.6411,0,0,0,0,0,0,0,0,0,0,0,0,0,0,0,0,0,0,0,0,0,0,0,0,0,0,0,0,0,0,0,0,0,0,0,0,0,0,0,0,0,0,0,0,0,0,0,0,0,0,0,0,0,0,0,0,0,0,0,0,0,0,0,0,0,0,0,0,0]}],[{"header":{"parameterUnit":"kt","parameterCategory":2,"dx":1,"dy":1,"la1":30.253999710083008,"la2":30.299108505249023,"lo1":-89.0895004272461,"lo2":-89.04439544677734,"nx":28,"ny":28,"refTime":"2022-10-19T21:00:00:Z","depth":"0","parameterNumber":3,"parameterNumberName":"V-component_of_CURRENTS"},"data":[0.0237,0.0334,0.0389,0.0686,0.0844,0.1122,0.1305,0.1596,0.1911,0.2399,0.2685,0.2876,0.246,0.0618,-0.0732,-0.1057,-0.1504,-0.154,-0.174,-0.147,-0.144,-0.1411,-0.162,-0.1713,-0.1715,-0.2349,-0.2356,-0.2361,0.0192,0.0246,0.0381,0.0572,0.0779,0.0855,0.1172,0.1361,0.1711,0.2095,0.2358,0.2437,0.189,0.1268,0.0264,-0.0356,-0.0651,-0.0714,-0.0998,-0.1066,-0.0454,-0.0621,-0.0504,-0.0504,-0.0503,-0.0503,-0.0503,-0.0502,0.0109,0.0174,0.0251,0.0415,0.0589,0.0825,0.0992,0.1217,0.151,0.1841,0.1967,0.2228,0.1864,0.1357,0.0945,0.0146,0.0119,-0.0209,-0.0351,-0.0444,-0.0695,-0.003,0.0263,0.0263,0.0263,0.0263,0.0263,0,0.0017,0.0052,0.0114,0.0278,0.0424,0.0596,0.0777,0.0956,0.1095,0.1318,0.1602,0.1714,0.1615,0.1372,0.1009,0.0705,-0.0012,0.0237,-0.0113,-0.0653,-0.0804,-0.0958,-0.0377,-0.0007,-0.0009,-0.001,-0.0011,-0.0011,-0.0102,-0.005,0.005,0.0129,0.0156,0.0319,0.0434,0.0515,0.0655,0.0908,0.1043,0.1173,0.1227,0.1124,0.0688,0.0438,0.0027,0.0213,-0.0163,-0.0495,-0.0703,-0.0858,-0.0975,-0.0027,-0.0025,-0.0024,-0.0022,0,-0.0156,-0.0191,-0.0106,-0.0063,-0.0021,0.0096,0.0223,0.0353,0.0416,0.0623,0.0674,0.0658,0.069,0.0437,0.0326,0.004,-0.0201,-0.0121,-0.0122,-0.0151,-0.0588,-0.0763,-0.0625,-0.0735,-0.0026,-0.0023,-0.0021,0,-0.0305,-0.0246,-0.0273,-0.0238,-0.009,-0.0176,-0.0003,-0.0019,0.006,0.0196,0.0029,0.0161,-0.0116,-0.0096,-0.0349,-0.0393,-0.0312,-0.0668,-0.0684,-0.0743,-0.0752,-0.1022,-0.1209,-0.0685,-0.0688,-0.0691,-0.0694,0,-0.0423,-0.0447,-0.0392,-0.0409,-0.0456,-0.0399,-0.0395,-0.0421,-0.0363,-0.0323,-0.0235,-0.0332,-0.0284,-0.0407,-0.0623,-0.0778,-0.055,-0.0785,-0.0817,-0.0814,-0.0792,-0.08,-0.0809,-0.0699,-0.07,-0.0701,-0.0702,0,-0.0612,-0.0632,-0.0586,-0.0605,-0.0614,-0.0587,-0.056,-0.0566,-0.0598,-0.0637,-0.069,-0.0807,-0.0826,-0.1065,-0.1051,-0.1154,-0.1214,-0.1282,-0.127,-0.1284,-0.1445,-0.1082,-0.0842,-0.1182,-0.1171,-0.1176,-0.118,0,-0.0696,-0.0712,-0.0845,-0.08,-0.0819,-0.0963,-0.0942,-0.1011,-0.1084,-0.1053,-0.1228,-0.1227,-0.15,-0.15,-0.1538,-0.1606,-0.1534,-0.1738,-0.1522,-0.1512,-0.1488,-0.1282,-0.1307,-0.0927,-0.1244,-0.1237,-0.1233,0,-0.0808,-0.099,-0.0986,-0.0997,-0.1169,-0.1198,-0.1217,-0.1289,-0.1231,-0.1406,-0.1329,-0.1551,-0.1634,-0.1688,-0.1839,-0.1825,-0.164,-0.1907,-0.1907,-0.1681,-0.1363,-0.1369,-0.1326,-0.1728,-0.1722,-0.1717,-0.1283,0,-0.0975,-0.1047,-0.1064,-0.12,-0.1262,-0.1297,-0.144,-0.1482,-0.1572,-0.1654,-0.1706,-0.1874,-0.1937,-0.2033,-0.2138,-0.2066,-0.2033,-0.2153,-0.2155,-0.2069,-0.1897,-0.1857,-0.237,-0.2373,-0.2375,-0.2377,0,0,-0.1028,-0.1151,-0.1343,-0.1387,-0.1432,-0.1618,-0.1617,-0.1691,-0.1841,-0.1855,-0.1932,-0.2081,-0.2205,-0.2215,-0.2236,-0.2324,-0.2235,-0.2274,-0.2156,-0.2132,-0.2109,-0.1938,-0.1897,-0.238,-0.2381,-0.2382,-0.2383,0,-0.113,-0.1296,-0.1334,-0.1428,-0.1576,-0.167,-0.1687,-0.1849,-0.1891,-0.1956,-0.2057,-0.214,-0.2257,-0.2317,-0.2361,-0.2352,-0.2312,-0.2399,-0.2249,-0.2179,-0.2151,-0.2127,-0.1954,-0.1915,-0.2388,-0.2387,-0.2387,0,-0.1224,-0.1374,-0.1423,-0.1631,-0.1721,-0.1766,-0.1888,-0.1953,-0.1964,-0.211,-0.2134,-0.2243,-0.2343,-0.2388,-0.2414,-0.2431,-0.2347,-0.2469,-0.2461,-0.2384,-0.2309,-0.2281,-0.2255,-0.2569,-0.2569,-0.2569,0,0,-0.1286,-0.1386,-0.1592,-0.1665,-0.1723,-0.1863,-0.1911,-0.1977,-0.2074,-0.2103,-0.2187,-0.2266,-0.2334,-0.2365,-0.2439,-0.2478,-0.2413,-0.2483,-0.2475,-0.2467,-0.2388,-0.2312,-0.2286,-0.2568,-0.2568,-0.2568,0,0,-0.13,-0.1541,-0.1618,-0.1728,-0.1841,-0.1996,-0.2003,-0.2076,-0.2143,-0.2133,-0.2238,-0.226,-0.231,-0.2372,-0.2356,-0.2432,-0.2478,-0.2483,-0.2365,-0.2356,-0.2348,-0.2228,-0.241,0,0,0,0,0,-0.1483,-0.1522,-0.1591,-0.1633,-0.1863,-0.198,-0.2001,-0.2085,-0.2108,-0.2116,-0.219,-0.2228,-0.2384,-0.2372,-0.2392,-0.2374,-0.2562,-0.2563,-0.2564,-0.2424,-0.2413,-0.2404,0,0,0,0,0,0,-0.1501,-0.1556,-0.1589,-0.1756,-0.1808,-0.198,-0.2031,-0.2054,-0.2108,-0.2114,-0.2215,-0.2231,-0.2293,-0.2366,-0.2383,-0.2364,-0.2404,-0.2562,-0.2563,-0.2564,-0.242,-0.2412,-0.2404,0,0,0,0,0,-0.1516,-0.156,-0.1919,-0.1753,-0.1798,-0.1927,-0.2029,-0.2049,-0.2083,-0.2197,-0.2214,-0.2143,-0.2291,-0.2311,-0.2376,-0.2353,-0.2392,-0.2398,-0.2563,-0.2564,-0.2564,-0.2416,0,0,0,0,0,0,-0.1526,-0.1555,-0.1928,-0.1942,-0.1745,-0.1916,-0.1951,-0.2044,-0.2163,-0.2183,-0.2129,-0.2133,-0.2291,-0.2306,-0.232,-0.2345,-0.2382,-0.2389,-0.2393,-0.2563,-0.2564,-0.2564,0,0,0,0,0,0,-0.1532,-0.1567,-0.1935,-0.1922,-0.1935,-0.1905,-0.1937,-0.2005,-0.2162,-0.2086,-0.2095,-0.2129,-0.2266,-0.2303,-0.2314,-0.2416,-0.2375,-0.2381,-0.2386,-0.2388,-0.2564,-0.2564,0,0,0,0,0,0,-0.1547,-0.1577,-0.1918,-0.1928,-0.1939,-0.2101,-0.1963,-0.2187,-0.2171,-0.2078,-0.2171,-0.2171,-0.2261,-0.2274,-0.231,-0.2406,-0.2413,-0.2375,-0.2379,-0.2382,-0.2384,0,0,0,0,0,0,0,-0.1559,-0.1354,-0.1851,-0.1933,-0.1943,-0.2076,-0.2079,-0.2082,-0.2171,-0.2171,-0.2171,-0.2171,-0.234,-0.2347,-0.2353,-0.2398,0,0,-0.2375,-0.2378,0,0,0,0,0,0,0,0,-0.1342,-0.1351,-0.1851,-0.1855,-0.1858,-0.2077,-0.2079,-0.2082,-0.2171,-0.2171,-0.2171,-0.2171,-0.2342,-0.2347,-0.2353,0,0,0,0,0,0,0,0,0,0,0,0,0,0,0,-0.1852,-0.1855,0,-0.2077,-0.2079,-0.2081,-0.2171,-0.2171,-0.2171,-0.2171,-0.2343,-0.2348,-0.2352,0,0,0,0,0,0,0,0,0,0,0,0,0,0,0,0,0,0,0,0,0,0,0,0,0,0,0,0,0,0,0,0,0,0,0,0,0,0,0,0,0,0,0,0,0,0,0,0,0,0,0,0,0,0,0,0,0,0,0,0,0,0,0,0,0,0,0,0,0]}]],[[{"header":{"parameterUnit":"kt","parameterCategory":2,"dx":1,"dy":1,"la1":30.253999710083008,"la2":30.299108505249023,"lo1":-89.0895004272461,"lo2":-89.04439544677734,"nx":28,"ny":28,"refTime":"2022-10-19T21:00:00:Z","depth":"2","parameterNumber":2,"parameterNumberName":"U-component_of_CURRENTS"},"data":[0.4517,0.4634,0.4727,0.4793,0.4884,0.4665,0.4562,0.4292,0.4134,0.3743,0.3505,0.3576,0.3729,0.3081,0.3009,0.276,0.318,0.2643,0.384,0.4103,0.4202,0.4482,0.4165,0,0,0,0,0,0.4539,0.4665,0.4855,0.5004,0.5072,0.521,0.5244,0.5037,0.4873,0.4871,0.4774,0.4228,0.392,0.3974,0.3597,0.3478,0.3555,0.3375,0.3503,0.3618,0.3721,0.3437,0.2591,0.2587,0.2583,0.2579,0,0,0.4583,0.4663,0.4852,0.5056,0.522,0.5298,0.5249,0.5377,0.5427,0.5361,0.565,0.5405,0.5368,0.4815,0.4669,0.4562,0.4948,0.4727,0.4776,0.4838,0.4602,0.4374,0.4069,0.4074,0.408,0.4084,0.4088,0,0.4597,0.4687,0.4817,0.5053,0.5209,0.5336,0.5519,0.5578,0.5806,0.5919,0.6045,0.6059,0.6077,0.5753,0.5572,0.5496,0.5706,0.5446,0.6368,0.5363,0.5152,0.5129,0.5162,0.5037,0.5049,0.5058,0.5064,0.5069,0.4579,0.4678,0.4913,0.5023,0.5141,0.5312,0.5458,0.5652,0.5789,0.608,0.6169,0.638,0.6412,0.6464,0.634,0.6286,0.6533,0.5733,0.5606,0.6247,0.6223,0.6216,0.6207,0.5195,0.5179,0.5166,0.5155,0,0.4543,0.4703,0.4878,0.5098,0.5168,0.5278,0.5521,0.5659,0.5859,0.6073,0.6153,0.6414,0.6584,0.6697,0.6886,0.6735,0.6747,0.6637,0.6098,0.6005,0.6284,0.6261,0.6346,0.6333,0.6322,0.6313,0.6305,0,0.4586,0.4691,0.4921,0.501,0.5158,0.5329,0.551,0.5664,0.5884,0.6042,0.623,0.6357,0.6583,0.6705,0.675,0.6693,0.6964,0.6552,0.6532,0.6153,0.608,0.6776,0.6743,0.7044,0.7042,0.7041,0.7041,0,0.4565,0.4784,0.4945,0.5016,0.5271,0.5364,0.5486,0.5717,0.5845,0.6073,0.6182,0.6383,0.6478,0.663,0.6663,0.6667,0.687,0.6886,0.654,0.651,0.6113,0.6033,0.7039,0.7039,0.7039,0.7038,0.7038,0,0.4633,0.4792,0.4977,0.5178,0.5238,0.5332,0.5562,0.5679,0.5901,0.5993,0.6143,0.6207,0.6357,0.6297,0.6533,0.6478,0.6511,0.6539,0.6547,0.6108,0.601,0.5702,0.5757,0.656,0.6557,0.6553,0.655,0,0.4572,0.481,0.4956,0.5099,0.5225,0.537,0.5488,0.564,0.5766,0.5897,0.5971,0.606,0.6031,0.6066,0.6175,0.6238,0.6327,0.6198,0.6367,0.6368,0.5986,0.6133,0.5681,0.5735,0.6506,0.6511,0.6514,0,0.4546,0.4857,0.4867,0.4978,0.5206,0.5276,0.5422,0.5583,0.5686,0.5774,0.5892,0.5929,0.596,0.5957,0.5947,0.6038,0.624,0.6024,0.6027,0.6067,0.653,0.612,0.611,0.6327,0.6333,0.6338,0.6479,0,0.4616,0.4776,0.484,0.5077,0.5165,0.5252,0.5392,0.5474,0.555,0.5618,0.5729,0.5714,0.576,0.5766,0.5722,0.588,0.5859,0.5855,0.5771,0.5931,0.5962,0.5991,0.5605,0.5601,0.5598,0.5596,0,0,0.4514,0.4739,0.4891,0.5025,0.511,0.5221,0.5307,0.5371,0.5455,0.551,0.5471,0.5566,0.5518,0.5598,0.5622,0.5617,0.5676,0.5567,0.5833,0.586,0.5884,0.5924,0.5954,0.5591,0.559,0.5589,0.5588,0,0.455,0.4753,0.4871,0.4962,0.5143,0.5207,0.5246,0.5351,0.5374,0.5455,0.5425,0.5453,0.546,0.5443,0.5438,0.5574,0.5541,0.558,0.566,0.5804,0.5834,0.5861,0.5907,0.5936,0.558,0.5581,0.5581,0,0.4536,0.4725,0.4789,0.5033,0.5108,0.5197,0.5198,0.5281,0.5338,0.5267,0.5316,0.5309,0.5272,0.531,0.5319,0.5265,0.5427,0.5335,0.535,0.5326,0.5468,0.5503,0.5534,0.5138,0.5137,0.5136,0,0,0.457,0.472,0.49,0.5047,0.511,0.5193,0.5241,0.5255,0.5282,0.5276,0.5251,0.5233,0.5239,0.5223,0.5207,0.5257,0.5263,0.5285,0.5306,0.5323,0.531,0.5455,0.5489,0.5132,0.5132,0.5132,0,0,0.4518,0.4762,0.4847,0.5042,0.5125,0.5194,0.5232,0.5259,0.5256,0.5251,0.5184,0.5166,0.5196,0.5145,0.5105,0.5166,0.5074,0.5083,0.5201,0.5226,0.5246,0.523,0.4972,0,0,0,0,0,0.4634,0.4755,0.4835,0.4892,0.5128,0.5209,0.5222,0.5224,0.5228,0.5222,0.5208,0.5124,0.5099,0.506,0.5055,0.5106,0.5081,0.509,0.5099,0.5263,0.529,0.5313,0,0,0,0,0,0,0.4657,0.4727,0.483,0.4933,0.4987,0.5205,0.516,0.516,0.5222,0.5209,0.5141,0.5122,0.5047,0.5057,0.5053,0.5104,0.4973,0.5085,0.5092,0.5099,0.5272,0.5295,0.5314,0,0,0,0,0,0.4675,0.4732,0.5133,0.4925,0.4972,0.5026,0.5153,0.5152,0.517,0.5128,0.5109,0.5173,0.5051,0.5041,0.5054,0.5107,0.4975,0.4974,0.509,0.5096,0.5101,0.5283,0,0,0,0,0,0,0.4689,0.4671,0.5139,0.515,0.488,0.5006,0.5031,0.5146,0.5078,0.5072,0.5152,0.5142,0.5056,0.5047,0.504,0.5114,0.4976,0.4975,0.4974,0.5094,0.5099,0.5103,0,0,0,0,0,0,0.4643,0.4681,0.5143,0.5087,0.509,0.4987,0.5011,0.502,0.5071,0.5097,0.5093,0.5148,0.5038,0.5052,0.5045,0.506,0.4977,0.4976,0.4975,0.4975,0.5098,0.5102,0,0,0,0,0,0,0.4657,0.469,0.5081,0.5084,0.5086,0.5193,0.4983,0.5192,0.5138,0.5093,0.5125,0.5119,0.5043,0.5036,0.505,0.5069,0.5062,0.4977,0.4976,0.4976,0.4976,0,0,0,0,0,0,0,0.4669,0.4473,0.5102,0.5082,0.5084,0.5262,0.5262,0.5262,0.5136,0.5131,0.5126,0.5122,0.4982,0.4981,0.498,0.5075,0,0,0.4977,0.4977,0,0,0,0,0,0,0,0,0.4457,0.4469,0.5103,0.5107,0.5111,0.5262,0.5262,0.5262,0.5136,0.5131,0.5127,0.5123,0.4982,0.4981,0.498,0,0,0,0,0,0,0,0,0,0,0,0,0,0,0,0.5103,0.5107,0,0.5262,0.5262,0.5262,0.5135,0.5132,0.5128,0.5125,0.4982,0.4981,0.498,0,0,0,0,0,0,0,0,0,0,0,0,0,0,0,0,0,0,0,0,0,0,0,0,0,0,0,0,0,0,0,0,0,0,0,0,0,0,0,0,0,0,0,0,0,0,0,0,0,0,0,0,0,0,0,0,0,0,0,0,0,0,0,0,0,0,0,0,0]}],[{"header":{"parameterUnit":"kt","parameterCategory":2,"dx":1,"dy":1,"la1":30.253999710083008,"la2":30.299108505249023,"lo1":-89.0895004272461,"lo2":-89.04439544677734,"nx":28,"ny":28,"refTime":"2022-10-19T21:00:00:Z","depth":"2","parameterNumber":3,"parameterNumberName":"V-component_of_CURRENTS"},"data":[0.113,0.1196,0.1197,0.1378,0.1469,0.1742,0.1932,0.2193,0.2342,0.2536,0.251,0.2376,0.1709,0.1107,0.049,0.004,-0.002,-0.0043,-0.0002,0.0222,0.0237,-0.0183,-0.0296,0,0,0,0,0,0.107,0.1092,0.1147,0.126,0.1384,0.1402,0.1649,0.1848,0.2218,0.2338,0.2508,0.2065,0.1606,0.1063,0.0237,-0.0277,-0.0271,-0.0431,-0.0312,-0.0301,-0.0293,-0.0375,-0.039,-0.0391,-0.0393,-0.0394,0,0,0.0961,0.102,0.1095,0.1144,0.1225,0.1375,0.1529,0.1695,0.1928,0.2179,0.219,0.2224,0.1758,0.0977,0.0495,-0.0057,-0.0064,-0.0313,-0.0304,-0.0296,-0.0381,-0.0413,-0.0397,-0.0398,-0.0399,-0.0399,-0.0399,0,0.0889,0.091,0.1007,0.1075,0.1139,0.1248,0.1332,0.1443,0.1523,0.1689,0.1902,0.1928,0.16,0.1205,0.0597,0.03,-0.0048,-0.0126,-0.0067,-0.0189,-0.0208,-0.0197,-0.0201,-0.0145,-0.0144,-0.0143,-0.0143,-0.0143,0.0761,0.0844,0.0966,0.1006,0.1048,0.1116,0.1145,0.1164,0.1225,0.1367,0.1444,0.1438,0.1401,0.107,0.0589,0.0192,0.0098,-0.0085,-0.0272,-0.0291,-0.028,-0.0284,-0.0288,-0.0134,-0.0135,-0.0136,-0.0137,0,0.0695,0.076,0.0889,0.0983,0.0994,0.104,0.1075,0.1102,0.1078,0.1151,0.1155,0.1083,0.1007,0.0714,0.054,0.0229,0.0028,-0.0072,-0.001,-0.0001,-0.0265,-0.0274,-0.023,-0.0233,-0.0236,-0.0239,-0.0241,0,0.063,0.0714,0.0822,0.088,0.0953,0.0928,0.0953,0.088,0.0848,0.0888,0.0684,0.0734,0.0467,0.04,0.0159,-0.0026,0.0089,-0.0275,-0.0262,-0.0215,-0.0222,-0.0156,-0.0159,-0.0144,-0.0145,-0.0147,-0.0148,0,0.0541,0.0666,0.0769,0.0778,0.0807,0.0807,0.0775,0.0651,0.0634,0.0532,0.0546,0.0374,0.0395,0.0217,0.0031,-0.0038,-0.003,-0.0086,-0.0271,-0.0276,-0.0185,-0.0187,-0.0149,-0.0149,-0.015,-0.015,-0.015,0,0.0467,0.056,0.0679,0.0725,0.0739,0.0728,0.065,0.0597,0.0457,0.0371,0.0239,0.0144,0.0056,-0.0092,-0.017,-0.0203,-0.0276,-0.0319,-0.0312,-0.0395,-0.0387,-0.0205,-0.0231,-0.0217,-0.0218,-0.0219,-0.0221,0,0.0358,0.0505,0.0495,0.0565,0.0622,0.0515,0.0453,0.0371,0.0244,0.0177,0.002,-0.0032,-0.0224,-0.0238,-0.0329,-0.0321,-0.0366,-0.0424,-0.0279,-0.0273,-0.0369,-0.0423,-0.0374,-0.0249,-0.0236,-0.0235,-0.0233,0,0.0259,0.0355,0.0365,0.0399,0.0352,0.0402,0.0302,0.0262,0.0231,0.0041,0.0019,-0.0185,-0.0243,-0.0274,-0.0335,-0.0376,-0.0384,-0.0401,-0.0398,-0.0319,-0.0297,-0.0425,-0.0426,-0.04,-0.0399,-0.0399,-0.0246,0,0.0172,0.0222,0.0272,0.0296,0.0307,0.0355,0.0296,0.0224,0.0104,0.0053,-0.0069,-0.0172,-0.0235,-0.0308,-0.0355,-0.0387,-0.0362,-0.036,-0.0314,-0.0359,-0.0287,-0.0277,-0.0366,-0.0364,-0.0363,-0.0362,0,0,0.0032,0.013,0.0145,0.0202,0.0228,0.0186,0.0242,0.0193,0.0154,0.0115,0.0025,-0.0125,-0.0189,-0.0232,-0.03,-0.0319,-0.0288,-0.0331,-0.0353,-0.0353,-0.0352,-0.0285,-0.0277,-0.036,-0.0359,-0.0359,-0.0358,0,0.0026,0.0024,0.0105,0.013,0.0195,0.0199,0.0199,0.0227,0.0177,0.0088,0.0041,-0.0049,-0.0167,-0.0192,-0.0219,-0.0299,-0.0262,-0.0343,-0.0377,-0.0344,-0.0346,-0.0346,-0.0281,-0.0275,-0.0355,-0.0356,-0.0356,0,-0.0069,-0.0016,0.0023,0.0107,0.0155,0.0193,0.02,0.0258,0.0234,0.0188,0.0076,0.0014,-0.0029,-0.0117,-0.0164,-0.0147,-0.0215,-0.0237,-0.0244,-0.022,-0.0182,-0.0185,-0.0187,-0.0148,-0.0147,-0.0147,0,0,-0.009,-0.0033,0.0049,0.0115,0.0142,0.0191,0.0227,0.0232,0.0227,0.0203,0.0125,0.005,-0.0004,-0.0055,-0.0099,-0.0167,-0.0114,-0.0213,-0.0223,-0.0231,-0.0212,-0.0177,-0.018,-0.0145,-0.0145,-0.0145,0,0,-0.0081,0.002,0.0008,0.009,0.0148,0.0249,0.0283,0.0272,0.0222,0.0183,0.0131,0.011,0.0007,-0.0004,0.0028,-0.0105,-0.0063,-0.007,-0.0108,-0.012,-0.013,-0.0098,0.0028,0,0,0,0,0,-0.0038,0.0016,0.0004,0.0028,0.015,0.0255,0.0269,0.0288,0.0245,0.0249,0.0165,0.0154,-0.0004,0.0024,0.0014,-0.0046,-0.0116,-0.0121,-0.0126,-0.0191,-0.0204,-0.0214,0,0,0,0,0,0,-0.0027,0.0,0.0005,0.011,0.014,0.0252,0.0227,0.0232,0.0243,0.0235,0.0171,0.0155,0.0131,0.0028,0.0019,-0.0037,0.0031,-0.0118,-0.0123,-0.0127,-0.0195,-0.0206,-0.0215,0,0,0,0,0,-0.0018,0.0004,0.0185,0.0109,0.0134,0.0189,0.0222,0.0226,0.0205,0.02,0.0184,0.0214,0.0135,0.0119,0.0023,-0.0034,0.0037,0.0034,-0.0121,-0.0125,-0.0128,-0.02,0,0,0,0,0,0,-0.0012,-0.0009,0.0191,0.0201,0.0076,0.018,0.0192,0.0221,0.0164,0.0158,0.0243,0.0237,0.0138,0.0125,0.0114,-0.0033,0.0043,0.0039,0.0037,-0.0124,-0.0126,-0.0129,0,0,0,0,0,0,-0.0019,-0.0002,0.0195,0.0152,0.0157,0.0172,0.0183,0.0159,0.0156,0.0203,0.0202,0.024,0.0107,0.013,0.0121,0.0087,0.0047,0.0043,0.0041,0.0039,-0.0126,-0.0128,0,0,0,0,0,0,-0.0011,0.0004,0.0148,0.0152,0.0156,0.0261,0.0143,0.0225,0.0247,0.0199,0.0238,0.0234,0.011,0.0102,0.0126,0.0097,0.009,0.0046,0.0044,0.0043,0.0042,0,0,0,0,0,0,0,-0.0004,-0.0119,0.0147,0.0152,0.0155,0.03,0.0301,0.0302,0.0246,0.0243,0.0239,0.0236,0.0065,0.0062,0.0058,0.0106,0,0,0.0047,0.0045,0,0,0,0,0,0,0,0,-0.0124,-0.012,0.0147,0.015,0.0153,0.03,0.0301,0.0302,0.0246,0.0243,0.024,0.0237,0.0064,0.0061,0.0058,0,0,0,0,0,0,0,0,0,0,0,0,0,0,0,0.0147,0.015,0,0.0301,0.0301,0.0302,0.0245,0.0243,0.0241,0.0239,0.0064,0.0061,0.0059,0,0,0,0,0,0,0,0,0,0,0,0,0,0,0,0,0,0,0,0,0,0,0,0,0,0,0,0,0,0,0,0,0,0,0,0,0,0,0,0,0,0,0,0,0,0,0,0,0,0,0,0,0,0,0,0,0,0,0,0,0,0,0,0,0,0,0,0,0]}]],[[{"header":{"parameterUnit":"kt","parameterCategory":2,"dx":1,"dy":1,"la1":30.253999710083008,"la2":30.299108505249023,"lo1":-89.0895004272461,"lo2":-89.04439544677734,"nx":28,"ny":28,"refTime":"2022-10-19T21:00:00:Z","depth":"4","parameterNumber":2,"parameterNumberName":"U-component_of_CURRENTS"},"data":[0.0171,0.0184,0.0154,0.0129,0.016,0.0232,0.0366,0.0588,0.0687,0.1108,0.1264,0.1558,0.1794,0.1946,0.201,0.2042,0.2101,0.2368,0.236,0.2615,0.2649,0.2679,0.2474,0,0,0,0,0,0.0254,0.0213,0.022,0.0258,0.0379,0.0445,0.068,0.0827,0.1204,0.1347,0.1542,0.1734,0.1913,0.21,0.2048,0.2239,0.2441,0.2151,0.2348,0.2636,0.2674,0.2462,0,0,0,0,0,0,0.0334,0.0281,0.0331,0.0419,0.0551,0.0587,0.0733,0.0981,0.1178,0.1664,0.1736,0.2077,0.2391,0.244,0.2547,0.2576,0.2519,0.2439,0.2485,0.2522,0.2319,0.2039,0.1945,0,0,0,0,0,0.0409,0.0465,0.0473,0.0535,0.0709,0.0771,0.1071,0.1164,0.1544,0.1821,0.2079,0.2243,0.2406,0.2634,0.2705,0.2792,0.3089,0.2965,0.2984,0.2884,0.2712,0.2642,0.2633,0.2817,0.2822,0.2825,0.2826,0,0.0595,0.0556,0.0629,0.0666,0.0742,0.0959,0.1167,0.1521,0.1674,0.2059,0.2162,0.2476,0.2668,0.2802,0.3008,0.3141,0.3062,0.3063,0.2957,0.2771,0.2695,0.2675,0.2655,0.2857,0.2854,0.2852,0.2849,0,0.0751,0.0673,0.0627,0.0767,0.0873,0.1019,0.1342,0.1538,0.1864,0.2095,0.2248,0.2611,0.2851,0.3041,0.3326,0.3209,0.3297,0.3193,0.3369,0.3307,0.2728,0.2696,0.2907,0.2895,0.2886,0.2878,0.2872,0,0.0827,0.0796,0.0766,0.0772,0.0913,0.109,0.1337,0.1563,0.1887,0.2104,0.2417,0.2571,0.2916,0.3084,0.3181,0.3164,0.3431,0.3018,0.296,0.3171,0.3138,0.3132,0.309,0.3482,0.3481,0.348,0.3479,0,0.0893,0.0829,0.0741,0.0772,0.0878,0.1019,0.1184,0.1521,0.1663,0.2086,0.2256,0.2622,0.2775,0.2984,0.307,0.3034,0.3331,0.3262,0.2935,0.2904,0.311,0.307,0.3477,0.3477,0.3477,0.3477,0.3476,0,0.0906,0.0796,0.074,0.0806,0.0842,0.0984,0.1227,0.137,0.1719,0.1899,0.2174,0.2344,0.2604,0.2549,0.2847,0.2763,0.2806,0.2841,0.2847,0.247,0.2265,0.2486,0.2772,0.2766,0.2761,0.2757,0.2753,0,0.0958,0.0812,0.0741,0.0804,0.0777,0.0888,0.104,0.1248,0.1421,0.166,0.1848,0.2105,0.2087,0.2217,0.2358,0.2454,0.2569,0.2407,0.2562,0.2565,0.2236,0.243,0.2543,0.2683,0.2692,0.2698,0.2703,0,0.0954,0.0728,0.0737,0.0735,0.0786,0.0841,0.0961,0.1103,0.1283,0.146,0.1689,0.1869,0.1996,0.2047,0.2047,0.2181,0.2446,0.2158,0.2161,0.2222,0.276,0.2385,0.2389,0.2497,0.2506,0.2514,0.2655,0,0.0934,0.0801,0.0776,0.0696,0.0754,0.0793,0.0894,0.0971,0.11,0.1249,0.1484,0.1525,0.1689,0.1723,0.1709,0.1959,0.1907,0.1874,0.1812,0.1985,0.2003,0.2042,0.1531,0.1527,0.1524,0.1522,0,0,0.1018,0.076,0.0647,0.0627,0.0675,0.0748,0.0789,0.0859,0.0954,0.1056,0.1071,0.1318,0.1341,0.1504,0.1567,0.1533,0.1591,0.1576,0.1854,0.1891,0.1925,0.1957,0.1997,0.1516,0.1515,0.1514,0.1513,0,0.0933,0.0757,0.0627,0.0655,0.0699,0.0718,0.0753,0.0817,0.0878,0.0998,0.1025,0.1147,0.1239,0.1291,0.1335,0.1472,0.1515,0.1508,0.1659,0.1821,0.1862,0.1898,0.1937,0.1976,0.1505,0.1506,0.1506,0,0.0957,0.0818,0.0727,0.0586,0.063,0.0666,0.0683,0.0754,0.0832,0.0815,0.0925,0.0983,0.1018,0.1126,0.118,0.1127,0.1409,0.1287,0.1302,0.1351,0.1516,0.1561,0.1601,0.1097,0.1096,0.1095,0,0,0.0938,0.0738,0.0699,0.0587,0.0597,0.0664,0.0695,0.0747,0.0782,0.0805,0.0848,0.0908,0.0985,0.1018,0.1062,0.1137,0.1169,0.1244,0.1263,0.1279,0.1337,0.1505,0.1547,0.1093,0.1093,0.1093,0,0,0.0984,0.078,0.0774,0.0582,0.0631,0.0659,0.0686,0.0736,0.0772,0.0818,0.0832,0.0842,0.0964,0.0936,0.0895,0.1096,0.1005,0.1014,0.1142,0.1165,0.1184,0.1251,0.0903,0,0,0,0,0,0.0939,0.0788,0.0782,0.0753,0.0627,0.0645,0.0652,0.0701,0.076,0.0763,0.0804,0.083,0.0915,0.0877,0.0888,0.1037,0.1058,0.1064,0.107,0.1254,0.1279,0.13,0,0,0,0,0,0,0.0928,0.0876,0.0792,0.0782,0.0763,0.0644,0.0673,0.0684,0.0758,0.0765,0.0819,0.0829,0.0825,0.0875,0.0884,0.1027,0.09,0.1061,0.1066,0.107,0.1262,0.1283,0.13,0,0,0,0,0,0.092,0.088,0.0613,0.0793,0.0774,0.083,0.0673,0.0683,0.0739,0.0768,0.078,0.0787,0.0822,0.0835,0.088,0.1025,0.0895,0.0898,0.1064,0.1068,0.1072,0.1272,0,0,0,0,0,0,0.0914,0.0908,0.0616,0.0623,0.0811,0.0843,0.0824,0.0681,0.0738,0.0752,0.0731,0.0735,0.082,0.083,0.0839,0.1027,0.089,0.0893,0.0895,0.1067,0.107,0.1073,0,0,0,0,0,0,0.0934,0.0908,0.0619,0.0637,0.0645,0.0854,0.0836,0.0861,0.0739,0.0695,0.0702,0.0733,0.0831,0.0827,0.0834,0.0873,0.0886,0.0889,0.0891,0.0893,0.107,0.1072,0,0,0,0,0,0,0.0929,0.0908,0.0634,0.0641,0.0648,0.0716,0.0885,0.0753,0.0738,0.0691,0.0742,0.0744,0.0829,0.0836,0.0831,0.0866,0.0871,0.0886,0.0888,0.089,0.0891,0,0,0,0,0,0,0,0.0926,0.0993,0.0594,0.0644,0.065,0.069,0.069,0.069,0.0738,0.074,0.0742,0.0744,0.0869,0.0872,0.0876,0.086,0,0,0.0886,0.0888,0,0,0,0,0,0,0,0,0.1009,0.0997,0.0595,0.0597,0.0599,0.069,0.069,0.069,0.0738,0.074,0.0741,0.0743,0.087,0.0873,0.0875,0,0,0,0,0,0,0,0,0,0,0,0,0,0,0,0.0595,0.0597,0,0.069,0.069,0.069,0.0739,0.074,0.0741,0.0742,0.0871,0.0873,0.0875,0,0,0,0,0,0,0,0,0,0,0,0,0,0,0,0,0,0,0,0,0,0,0,0,0,0,0,0,0,0,0,0,0,0,0,0,0,0,0,0,0,0,0,0,0,0,0,0,0,0,0,0,0,0,0,0,0,0,0,0,0,0,0,0,0,0,0,0,0]}],[{"header":{"parameterUnit":"kt","parameterCategory":2,"dx":1,"dy":1,"la1":30.253999710083008,"la2":30.299108505249023,"lo1":-89.0895004272461,"lo2":-89.04439544677734,"nx":28,"ny":28,"refTime":"2022-10-19T21:00:00:Z","depth":"4","parameterNumber":3,"parameterNumberName":"V-component_of_CURRENTS"},"data":[0.0967,0.1133,0.121,0.1443,0.1608,0.1817,0.1932,0.1818,0.1631,0.1523,0.1282,0.1189,0.0739,0.0904,0.0268,0.0184,0.0118,-0.036,-0.0366,-0.0442,-0.0434,-0.0427,-0.0135,0,0,0,0,0,0.0978,0.105,0.1269,0.1458,0.1767,0.1929,0.2055,0.1997,0.1881,0.1704,0.1544,0.1225,0.0745,0.0545,0.0265,0.0174,-0.0157,-0.016,-0.0216,-0.0437,-0.0429,-0.0147,0,0,0,0,0,0,0.0971,0.1022,0.1228,0.15,0.1819,0.1933,0.195,0.1932,0.1845,0.1558,0.1481,0.1111,0.0927,0.0501,0.0212,-0.0062,-0.0107,-0.0154,-0.0162,-0.0157,0.0104,0.0262,-0.0065,0,0,0,0,0,0.0955,0.1033,0.118,0.1483,0.174,0.1866,0.2032,0.1968,0.1851,0.1799,0.1488,0.1206,0.0834,0.0498,0.0157,-0.0109,-0.0208,-0.0352,-0.0348,-0.0167,-0.0077,-0.0093,-0.0056,-0.0396,-0.0395,-0.0395,-0.0394,0,0.093,0.1033,0.1277,0.1435,0.1597,0.1748,0.1917,0.1902,0.1868,0.1603,0.1551,0.1242,0.1082,0.052,0.0291,-0.0134,-0.0144,-0.0329,-0.0134,-0.0059,-0.0086,-0.0049,-0.0013,-0.0387,-0.0388,-0.0388,-0.0389,0,0.0891,0.105,0.1209,0.1428,0.1538,0.1625,0.1766,0.1801,0.1702,0.1603,0.1575,0.136,0.1067,0.0807,0.0418,0.0302,0.0011,-0.0098,0.0119,0.008,-0.002,0.0013,-0.0376,-0.0379,-0.0381,-0.0382,-0.0384,0,0.0904,0.1012,0.1272,0.137,0.1498,0.1606,0.1659,0.167,0.1616,0.1578,0.1485,0.1375,0.1155,0.0917,0.0747,0.0436,0.0369,0.0277,0.021,0.0434,0.0463,0.0336,0.0357,0.0189,0.0192,0.0195,0.0198,0,0.088,0.1107,0.1248,0.131,0.1492,0.1559,0.1604,0.1614,0.1592,0.1509,0.147,0.1332,0.1231,0.1024,0.0843,0.0906,0.0463,0.0497,0.033,0.0328,0.0363,0.0378,0.0202,0.0203,0.0204,0.0205,0.0206,0,0.0933,0.1093,0.1275,0.1428,0.1461,0.1557,0.1543,0.156,0.152,0.1524,0.1473,0.1439,0.1306,0.1336,0.1022,0.1158,0.0986,0.086,0.084,0.0789,0.0789,0.0698,0.0606,0.0612,0.0617,0.0621,0.0626,0,0.0839,0.1093,0.1213,0.1355,0.1454,0.1471,0.1503,0.1543,0.1546,0.1519,0.1474,0.1471,0.1511,0.1489,0.1387,0.1237,0.1086,0.129,0.0834,0.0819,0.0861,0.0775,0.1135,0.0694,0.0685,0.0679,0.0674,0,0.0786,0.1094,0.1117,0.1211,0.1347,0.1391,0.1441,0.1454,0.1466,0.1537,0.1502,0.1533,0.1515,0.1479,0.1437,0.1326,0.1176,0.1296,0.1285,0.1129,0.0813,0.085,0.0813,0.1162,0.1157,0.1152,0.0722,0,0.0832,0.0979,0.1054,0.1243,0.1286,0.1348,0.1403,0.1425,0.1485,0.1515,0.1523,0.1502,0.1464,0.1478,0.1477,0.1371,0.1314,0.1308,0.1237,0.1229,0.1041,0.1005,0.1397,0.1395,0.1393,0.1391,0,0,0.0676,0.0879,0.0985,0.1118,0.1159,0.12,0.1272,0.1295,0.138,0.1387,0.1442,0.1433,0.1435,0.1371,0.1402,0.1402,0.1288,0.1381,0.1257,0.1244,0.123,0.1052,0.102,0.1387,0.1387,0.1386,0.1385,0,0.0703,0.0827,0.0968,0.1021,0.1152,0.1161,0.1204,0.1283,0.1307,0.1387,0.138,0.1391,0.1425,0.1364,0.1343,0.1382,0.1262,0.1395,0.1398,0.1247,0.1236,0.1225,0.105,0.1022,0.138,0.1381,0.1381,0,0.0628,0.0775,0.0847,0.1001,0.1053,0.1111,0.1117,0.1204,0.1247,0.1235,0.1318,0.1322,0.128,0.13,0.1313,0.1278,0.1195,0.1292,0.1301,0.1257,0.1095,0.1085,0.1075,0.1191,0.1191,0.1191,0,0,0.0639,0.079,0.0887,0.1007,0.1043,0.1096,0.1127,0.1167,0.1214,0.1233,0.1256,0.1267,0.1265,0.1272,0.1267,0.1277,0.1148,0.1276,0.1285,0.1293,0.1256,0.1097,0.1087,0.1191,0.1191,0.1191,0,0,0.0616,0.0814,0.0864,0.1013,0.1052,0.1096,0.1133,0.1162,0.1193,0.124,0.1226,0.123,0.1284,0.124,0.1247,0.1242,0.1194,0.1193,0.1296,0.1307,0.1315,0.1277,0.1199,0,0,0,0,0,0.0704,0.0799,0.0844,0.0884,0.1041,0.1084,0.1088,0.1128,0.1178,0.1178,0.1222,0.1201,0.1225,0.1232,0.1231,0.1255,0.1194,0.1193,0.1193,0.1328,0.1339,0.1349,0,0,0,0,0,0,0.0721,0.0772,0.0839,0.0907,0.0943,0.1082,0.1102,0.1109,0.1176,0.1182,0.1195,0.1198,0.1174,0.123,0.123,0.1253,0.1199,0.1194,0.1193,0.1193,0.1332,0.1341,0.1349,0,0,0,0,0,0.0734,0.0775,0.1052,0.09,0.0931,0.1001,0.1101,0.1108,0.1152,0.1154,0.116,0.1196,0.1172,0.1176,0.123,0.1254,0.1199,0.1199,0.1193,0.1193,0.1193,0.1336,0,0,0,0,0,0,0.0743,0.0719,0.1055,0.1061,0.0919,0.0991,0.1015,0.1107,0.112,0.1129,0.1149,0.1152,0.117,0.1173,0.1176,0.1256,0.1199,0.1199,0.1199,0.1193,0.1193,0.1193,0,0,0,0,0,0,0.0698,0.0725,0.1057,0.108,0.1088,0.0981,0.1004,0.1001,0.1119,0.1108,0.1115,0.115,0.1188,0.1172,0.1174,0.1163,0.1199,0.1199,0.1199,0.1199,0.1193,0.1193,0,0,0,0,0,0,0.0707,0.073,0.1077,0.1083,0.109,0.114,0.0973,0.1136,0.1143,0.1105,0.1148,0.115,0.1187,0.1188,0.1172,0.116,0.1162,0.1199,0.1199,0.1199,0.1199,0,0,0,0,0,0,0,0.0714,0.0592,0.1046,0.1086,0.1091,0.1119,0.1118,0.1118,0.1143,0.1145,0.1148,0.1149,0.1198,0.1198,0.1198,0.1158,0,0,0.1199,0.1199,0,0,0,0,0,0,0,0,0.058,0.0589,0.1046,0.1049,0.1051,0.1119,0.1118,0.1118,0.1144,0.1145,0.1147,0.1149,0.1198,0.1198,0.1198,0,0,0,0,0,0,0,0,0,0,0,0,0,0,0,0.1046,0.1049,0,0.1119,0.1118,0.1118,0.1144,0.1145,0.1147,0.1148,0.1198,0.1198,0.1198,0,0,0,0,0,0,0,0,0,0,0,0,0,0,0,0,0,0,0,0,0,0,0,0,0,0,0,0,0,0,0,0,0,0,0,0,0,0,0,0,0,0,0,0,0,0,0,0,0,0,0,0,0,0,0,0,0,0,0,0,0,0,0,0,0,0,0,0,0]}]]]